Regional Weather Roundup
Issued by NWS Sioux Falls, SD

Home | Current Version | Previous Version | Graphics & Text | Print | Product List | Glossary On
Versions: 1 2 3 4 5 6 7 8 9 10 11 12 13 14 15 16 17 18 19 20 21 22 23 24 25 26 27 28 29 30 31 32 33 34 35 36 37 38 39 40 41 42 43 44 45 46 47 48 49 50
000
ASUS43 KFSD 180710
RWRFSD

WEATHER ROUNDUP FOR SE SOUTH DAKOTA/SW MINNESOTA/NW IOWA
NATIONAL WEATHER SERVICE SIOUX FALLS SD
200 AM CDT FRI AUG 18 2017

NOTE: "FAIR" INDICATES FEW OR NO CLOUDS BELOW 12,000 FEET WITH NO
SIGNIFICANT WEATHER AND OR OBSTRUCTIONS TO VISIBILITY.


SDZ038>040-050-052>070-180800-
SOUTHEAST SOUTH DAKOTA

CITY           SKY/WX    TMP DP  RH WIND       PRES   REMARKS
BROOKINGS      LGT RAIN  63  57  81 S10       29.90F
CHAMBERLAIN    CLOUDY    65  63  93 SE7       29.88F
HURON          CLOUDY    63  57  81 S9        29.87S
MADISON        FAIR      61  61 100 SE10      29.92F
MITCHELL       LGT RAIN  64  60  87 SE18      29.85F
SIOUX FALLS    RAIN      65  62  90 N5        29.93F
WINNER         FAIR      62  59  90 E8        29.93R
YANKTON        RAIN      63  58  83 N10       29.94F
$$

MNZ071-072-080-081-089-090-097-098-180800-
SOUTHWEST MINNESOTA

CITY           SKY/WX    TMP DP  RH WIND       PRES   REMARKS
FAIRMONT       CLEAR     61  59  93 W3        29.91R
JACKSON        PTCLDY    57  55  94 CALM      29.93R
LUVERNE        LGT RAIN  63  59  88 NW3       29.95F
MARSHALL       CLOUDY    61  58  90 SW6       29.90F
MONTEVIDEO     CLOUDY    63  61  94 W3        29.89F
PIPESTONE      DRIZZLE   64  61  88 SW6       29.94F
REDWOOD FALLS  CLEAR     63  59  87 W15       29.91R
TRACY          CLOUDY    62  60  91 SW7       29.92F
WINDOM         CLOUDY    59  57  94 W9        29.94R
WORTHINGTON    CLOUDY    61  58  90 NW5       29.95R
$$

IAZ001>003-012>014-020>022-031-032-NEZ013-014-SDZ071-180800-
NORTHWEST IOWA

CITY           SKY/WX    TMP DP  RH WIND       PRES   REMARKS
CHEROKEE       CLOUDY    58  58 100 CALM      29.91F
DENISON        CLEAR     57  57 100 CALM      29.95S FOG
ESTHERVILLE    CLEAR     54  54 100 CALM      29.90S
LE MARS        CLOUDY    61  61 100 CALM      29.93R
ORANGE CITY    CLOUDY    66  64  94 N5        29.95R
SHELDON        CLOUDY    61  61 100 NW5       29.93R
SIOUX CITY     MOCLDY    62  62 100 CALM      29.92R
SPENCER        FOG       57  57 100 SW5       29.92S VSB 1/2
STORM LAKE     CLOUDY    61  59  94 SW7       29.93S
$$

ABBREVIATIONS USED IN REMARKS
   TC - TEMPERATURE IN CELSIUS
  WCI - WIND CHILL INDEX
   HX - HEAT INDEX
  VSB - VISIBILITY




USA.gov is the U.S. government's official web portal to all federal, state and local government web resources and services.